�������l�o���
Date,Time,MP-1(��Sv/h),MP-2(��Sv/h),MP-3(��Sv/h),MP-4(��Sv/h),MP-5(��Sv/h),MP-6(��Sv/h),MP-7(��Sv/h),MP-8(��Sv/h),����,����(m/s),���J
2023/03/01,00:00,0.572,0.827,0.508,1.055,0.735,0.324,0.586,0.555,��,2.8,��
2023/03/01,00:10,0.572,0.828,0.507,1.055,0.734,0.325,0.588,0.556,��,2.3,��
2023/03/01,00:20,0.572,0.827,0.505,1.056,0.737,0.326,0.585,0.555,��,2.9,��
2023/03/01,00:30,0.572,0.828,0.507,1.057,0.736,0.324,0.586,0.555,��,6.3,��
2023/03/01,00:40,0.572,0.827,0.507,1.058,0.736,0.325,0.586,0.555,��,8.7,��
2023/03/01,00:50,0.571,0.829,0.509,1.056,0.734,0.326,0.585,0.556,��,9.4,��
2023/03/01,01:00,0.574,0.829,0.509,1.057,0.735,0.325,0.585,0.557,��,8.3,��
2023/03/01,01:10,0.572,0.828,0.508,1.058,0.736,0.326,0.587,0.556,��,8.5,��
2023/03/01,01:20,0.572,0.825,0.509,1.057,0.736,0.325,0.584,0.557,��,7.9,��
2023/03/01,01:30,0.574,0.827,0.505,1.057,0.735,0.326,0.586,0.555,��,8.4,��
2023/03/01,01:40,0.573,0.827,0.508,1.057,0.736,0.325,0.587,0.555,��,8.6,��
2023/03/01,01:50,0.573,0.827,0.507,1.057,0.736,0.324,0.586,0.556,��,9.7,��
2023/03/01,02:00,0.569,0.827,0.508,1.058,0.737,0.325,0.586,0.557,��,9.5,��
2023/03/01,02:10,0.572,0.830,0.509,1.056,0.736,0.325,0.586,0.557,��,9.0,��
2023/03/01,02:20,0.574,0.829,0.508,1.058,0.737,0.325,0.586,0.555,��,9.0,��
2023/03/01,02:30,0.574,0.827,0.508,1.057,0.735,0.324,0.586,0.557,��,10.0,��
2023/03/01,02:40,0.571,0.827,0.507,1.057,0.736,0.325,0.585,0.556,��,9.4,��
2023/03/01,02:50,0.573,0.827,0.507,1.058,0.736,0.325,0.587,0.555,��,9.8,��
2023/03/01,03:00,0.573,0.825,0.506,1.059,0.737,0.325,0.586,0.556,��,8.9,��
2023/03/01,03:10,0.572,0.829,0.507,1.058,0.738,0.326,0.587,0.556,��,8.9,��
2023/03/01,03:20,0.572,0.829,0.507,1.058,0.737,0.326,0.587,0.556,��,9.5,��
2023/03/01,03:30,0.572,0.827,0.508,1.057,0.735,0.325,0.586,0.556,���k��,10.0,��
2023/03/01,03:40,0.573,0.828,0.507,1.059,0.737,0.326,0.587,0.557,���k��,11.7,��
2023/03/01,03:50,0.572,0.827,0.508,1.059,0.735,0.325,0.587,0.556,���k��,11.1,��
2023/03/01,04:00,0.572,0.829,0.507,1.058,0.738,0.325,0.586,0.556,��,11.6,��
2023/03/01,04:10,0.573,0.829,0.508,1.058,0.736,0.326,0.586,0.557,��,11.1,��
2023/03/01,04:20,0.572,0.829,0.507,1.060,0.737,0.324,0.587,0.557,��,12.4,��
2023/03/01,04:30,0.573,0.828,0.506,1.058,0.737,0.326,0.587,0.556,��,11.3,��
2023/03/01,04:40,0.573,0.830,0.507,1.057,0.737,0.325,0.587,0.557,��,10.7,��
2023/03/01,04:50,0.572,0.828,0.507,1.057,0.736,0.325,0.585,0.555,���쐼,9.6,��
2023/03/01,05:00,0.573,0.827,0.508,1.058,0.734,0.325,0.586,0.558,��,9.0,��
2023/03/01,05:10,0.572,0.827,0.507,1.058,0.737,0.325,0.587,0.558,��,9.1,��
2023/03/01,05:20,0.572,0.826,0.507,1.057,0.738,0.326,0.587,0.558,���쐼,8.0,��
2023/03/01,05:30,0.572,0.828,0.508,1.060,0.737,0.325,0.588,0.557,��,7.3,��
2023/03/01,05:40,0.573,0.827,0.507,1.059,0.737,0.325,0.586,0.558,��,6.6,��
2023/03/01,05:50,0.573,0.828,0.507,1.060,0.737,0.326,0.585,0.558,��,6.1,��
2023/03/01,06:00,0.575,0.828,0.508,1.058,0.738,0.325,0.587,0.558,���k��,4.9,��
2023/03/01,06:10,0.574,0.828,0.508,1.060,0.737,0.325,0.586,0.558,���k��,4.3,��
2023/03/01,06:20,0.573,0.828,0.508,1.058,0.738,0.326,0.588,0.558,�k��,5.6,��
2023/03/01,06:30,0.575,0.830,0.508,1.059,0.736,0.326,0.588,0.558,�k��,6.0,��
2023/03/01,06:40,0.572,0.829,0.508,1.059,0.736,0.324,0.587,0.559,�k��,9.2,��
2023/03/01,06:50,0.573,0.828,0.508,1.058,0.738,0.325,0.588,0.559,���k��,8.7,��
2023/03/01,07:00,0.573,0.827,0.508,1.057,0.738,0.324,0.584,0.559,���k��,8.9,��
2023/03/01,07:10,0.572,0.828,0.509,1.060,0.737,0.325,0.586,0.558,���k��,10.0,��
2023/03/01,07:20,0.573,0.830,0.508,1.056,0.738,0.326,0.585,0.559,���k��,9.5,��
2023/03/01,07:30,0.574,0.828,0.509,1.059,0.737,0.324,0.587,0.558,���k��,14.9,��
2023/03/01,07:40,0.574,0.827,0.509,1.058,0.738,0.325,0.586,0.558,��,11.3,��
2023/03/01,07:50,0.573,0.829,0.506,1.060,0.737,0.325,0.585,0.559,��,11.0,��
2023/03/01,08:00,0.575,0.828,0.506,1.061,0.738,0.326,0.588,0.558,��,10.6,��
2023/03/01,08:10,0.575,0.827,0.506,1.060,0.737,0.325,0.587,0.559,��,12.2,��
2023/03/01,08:20,0.575,0.826,0.508,1.061,0.736,0.325,0.584,0.559,��,11.6,��
2023/03/01,08:30,0.575,0.827,0.508,1.060,0.738,0.326,0.586,0.558,��,13.5,��
2023/03/01,08:40,0.574,0.828,0.507,1.057,0.739,0.326,0.586,0.558,��,13.1,��
2023/03/01,08:50,0.574,0.828,0.506,1.060,0.736,0.325,0.586,0.559,��,11.0,��
2023/03/01,09:00,0.576,0.827,0.505,1.060,0.738,0.327,0.585,0.559,��,11.6,��
2023/03/01,09:10,0.576,0.828,0.506,1.060,0.739,0.326,0.585,0.561,��,11.8,��
2023/03/01,09:20,0.575,0.828,0.508,1.060,0.738,0.327,0.585,0.560,��,11.3,��
2023/03/01,09:30,0.576,0.829,0.507,1.058,0.740,0.325,0.587,0.560,��,10.5,��
2023/03/01,09:40,0.575,0.828,0.507,1.059,0.738,0.326,0.586,0.558,��,12.7,��
2023/03/01,09:50,0.577,0.828,0.508,1.062,0.739,0.326,0.585,0.558,��,10.7,��
2023/03/01,10:00,0.572,0.825,0.508,1.063,0.739,0.326,0.586,0.560,��,12.4,��
2023/03/01,10:10,0.573,0.825,0.506,1.061,0.738,0.326,0.586,0.558,��,9.6,��
2023/03/01,10:20,0.572,0.828,0.507,1.059,0.737,0.325,0.586,0.559,��,9.6,��
2023/03/01,10:30,0.572,0.827,0.506,1.063,0.736,0.325,0.587,0.558,��,8.6,��
2023/03/01,10:40,0.574,0.827,0.506,1.061,0.735,0.324,0.586,0.558,���쐼,5.5,��
2023/03/01,10:50,0.574,0.828,0.508,1.059,0.736,0.324,0.586,0.555,���쐼,5.3,��
2023/03/01,11:00,0.575,0.828,0.506,1.063,0.737,0.324,0.587,0.556,���쐼,5.9,��
2023/03/01,11:10,0.575,0.826,0.508,1.064,0.737,0.325,0.586,0.558,���쐼,4.5,��
2023/03/01,11:20,0.575,0.828,0.508,1.061,0.736,0.325,0.585,0.558,��쓌,5.5,��
2023/03/01,11:30,0.572,0.828,0.507,1.063,0.737,0.326,0.586,0.559,��쓌,6.9,��
2023/03/01,11:40,0.574,0.831,0.505,1.060,0.736,0.326,0.586,0.558,��쓌,6.5,��
2023/03/01,11:50,0.573,0.830,0.506,1.061,0.735,0.324,0.586,0.557,��쓌,7.9,��
2023/03/01,12:00,0.574,0.828,0.504,1.063,0.736,0.324,0.586,0.557,��쓌,8.1,��
2023/03/01,12:10,0.575,0.831,0.507,1.060,0.738,0.323,0.586,0.558,��쓌,8.4,��
2023/03/01,12:20,0.575,0.831,0.505,1.065,0.737,0.325,0.587,0.559,��쓌,7.4,��
2023/03/01,12:30,0.572,0.831,0.505,1.063,0.738,0.326,0.587,0.559,��쓌,8.2,��
2023/03/01,12:40,0.574,0.832,0.505,1.062,0.738,0.325,0.586,0.557,��쓌,8.5,��
2023/03/01,12:50,0.574,0.831,0.506,1.061,0.738,0.326,0.586,0.557,��쓌,7.7,��
2023/03/01,13:00,0.574,0.829,0.507,1.062,0.736,0.326,0.587,0.558,��쓌,5.7,��
2023/03/01,13:10,0.574,0.828,0.505,1.062,0.740,0.325,0.588,0.557,�쓌,5.4,��
2023/03/01,13:20,0.574,0.828,0.506,1.063,0.738,0.325,0.587,0.557,��쓌,6.3,��
2023/03/01,13:30,0.574,0.831,0.506,1.063,0.738,0.327,0.586,0.558,�쓌,7.0,��
2023/03/01,13:40,0.574,0.828,0.506,1.063,0.738,0.326,0.586,0.557,��쓌,6.8,��
2023/03/01,13:50,0.574,0.829,0.506,1.061,0.737,0.324,0.588,0.558,��쓌,7.2,��
2023/03/01,14:00,0.573,0.830,0.505,1.062,0.738,0.325,0.586,0.555,��쓌,7.1,��
2023/03/01,14:10,0.573,0.830,0.506,1.062,0.738,0.325,0.587,0.557,��쓌,8.3,��
2023/03/01,14:20,0.574,0.831,0.504,1.061,0.738,0.325,0.587,0.556,��쓌,6.7,��
2023/03/01,14:30,0.574,0.829,0.505,1.063,0.739,0.324,0.586,0.556,��쓌,6.8,��
2023/03/01,14:40,0.575,0.829,0.506,1.061,0.739,0.325,0.586,0.555,��쓌,7.1,��
2023/03/01,14:50,0.572,0.831,0.505,1.063,0.739,0.325,0.587,0.556,��쓌,7.4,��
2023/03/01,15:00,0.574,0.828,0.502,1.063,0.738,0.325,0.587,0.556,��쓌,7.1,��
2023/03/01,15:10,0.575,0.830,0.505,1.061,0.737,0.326,0.587,0.557,��쓌,6.7,��
2023/03/01,15:20,0.573,0.829,0.503,1.061,0.738,0.324,0.587,0.556,��쓌,6.8,��
2023/03/01,15:30,0.575,0.831,0.505,1.061,0.739,0.325,0.585,0.557,��쓌,6.7,��
2023/03/01,15:40,0.573,0.831,0.505,1.061,0.739,0.325,0.586,0.555,��쓌,6.2,��
2023/03/01,15:50,0.573,0.829,0.505,1.061,0.740,0.326,0.587,0.555,��쓌,6.5,��
2023/03/01,16:00,0.574,0.831,0.504,1.062,0.739,0.326,0.587,0.556,��쓌,7.0,��
2023/03/01,16:10,0.575,0.834,0.505,1.063,0.735,0.325,0.586,0.555,��쓌,6.4,��
2023/03/01,16:20,0.574,0.830,0.505,1.062,0.738,0.327,0.587,0.556,��쓌,7.1,��
2023/03/01,16:30,0.574,0.831,0.507,1.062,0.736,0.326,0.586,0.557,��쓌,6.9,��
2023/03/01,16:40,0.576,0.830,0.506,1.061,0.738,0.328,0.587,0.557,��쓌,5.9,��
2023/03/01,16:50,0.573,0.830,0.506,1.061,0.735,0.326,0.587,0.559,��쓌,6.5,��
2023/03/01,17:00,0.572,0.831,0.505,1.062,0.738,0.328,0.587,0.559,��,6.3,��
2023/03/01,17:10,0.573,0.831,0.504,1.061,0.736,0.327,0.587,0.559,��,6.4,��
2023/03/01,17:20,0.573,0.833,0.505,1.062,0.737,0.327,0.586,0.559,��쓌,6.3,��
2023/03/01,17:30,0.573,0.835,0.507,1.062,0.737,0.327,0.589,0.558,��,6.7,��
2023/03/01,17:40,0.575,0.833,0.507,1.061,0.737,0.327,0.587,0.556,��,7.4,��
2023/03/01,17:50,0.577,0.834,0.508,1.060,0.739,0.327,0.588,0.558,��,7.2,��
2023/03/01,18:00,0.577,0.832,0.507,1.061,0.740,0.326,0.589,0.557,��,7.5,��
2023/03/01,18:10,0.575,0.834,0.507,1.059,0.742,0.326,0.588,0.557,��,7.3,��
2023/03/01,18:20,0.575,0.832,0.507,1.062,0.741,0.327,0.590,0.557,��,6.5,��
2023/03/01,18:30,0.575,0.834,0.507,1.060,0.739,0.327,0.588,0.557,��쓌,6.3,��
2023/03/01,18:40,0.574,0.834,0.506,1.061,0.737,0.327,0.587,0.556,��,6.4,��
2023/03/01,18:50,0.575,0.834,0.508,1.061,0.739,0.326,0.589,0.558,��,8.0,��
2023/03/01,19:00,0.578,0.834,0.508,1.063,0.739,0.327,0.588,0.557,��,8.9,��
2023/03/01,19:10,0.573,0.831,0.506,1.062,0.740,0.327,0.588,0.556,��,8.6,��
2023/03/01,19:20,0.575,0.834,0.507,1.062,0.740,0.326,0.588,0.557,��,7.3,��
2023/03/01,19:30,0.576,0.833,0.507,1.063,0.738,0.326,0.587,0.557,��,6.7,��
2023/03/01,19:40,0.576,0.834,0.507,1.063,0.741,0.326,0.588,0.557,��쐼,5.9,��
2023/03/01,19:50,0.575,0.834,0.507,1.063,0.741,0.327,0.590,0.558,��쐼,5.7,��
2023/03/01,20:00,0.575,0.835,0.505,1.061,0.739,0.328,0.588,0.557,��쐼,4.5,��
2023/03/01,20:10,0.577,0.835,0.507,1.063,0.741,0.327,0.587,0.557,��쐼,4.4,��
2023/03/01,20:20,0.574,0.832,0.507,1.064,0.742,0.328,0.587,0.558,��쐼,5.1,��
2023/03/01,20:30,0.575,0.835,0.507,1.061,0.740,0.327,0.588,0.557,��쐼,5.6,��
2023/03/01,20:40,0.576,0.833,0.508,1.061,0.741,0.327,0.588,0.557,��쐼,6.0,��
2023/03/01,20:50,0.574,0.831,0.507,1.063,0.739,0.327,0.588,0.558,��쐼,6.1,��
2023/03/01,21:00,0.575,0.836,0.509,1.062,0.739,0.327,0.586,0.558,��쐼,6.2,��
2023/03/01,21:10,0.574,0.833,0.508,1.062,0.740,0.328,0.589,0.557,�쐼,5.0,��
2023/03/01,21:20,0.577,0.832,0.507,1.058,0.742,0.327,0.588,0.558,��쐼,5.4,��
2023/03/01,21:30,0.575,0.833,0.508,1.061,0.739,0.327,0.588,0.559,�쐼,5.0,��
2023/03/01,21:40,0.575,0.833,0.507,1.061,0.741,0.328,0.587,0.557,��쐼,5.2,��
2023/03/01,21:50,0.576,0.831,0.507,1.063,0.739,0.328,0.588,0.556,��쐼,5.4,��
2023/03/01,22:00,0.577,0.833,0.508,1.061,0.741,0.327,0.588,0.558,��쐼,4.8,��
2023/03/01,22:10,0.576,0.832,0.508,1.061,0.741,0.327,0.588,0.557,��쐼,3.9,��
2023/03/01,22:20,0.573,0.833,0.507,1.061,0.740,0.327,0.587,0.557,��쐼,3.7,��
2023/03/01,22:30,0.577,0.833,0.507,1.064,0.740,0.326,0.588,0.558,��쐼,4.0,��
2023/03/01,22:40,0.576,0.834,0.508,1.060,0.740,0.326,0.588,0.558,��쐼,3.7,��
2023/03/01,22:50,0.574,0.833,0.506,1.063,0.740,0.327,0.588,0.558,��쐼,2.8,��
2023/03/01,23:00,0.577,0.833,0.507,1.064,0.741,0.326,0.589,0.558,��,3.5,��
2023/03/01,23:10,0.575,0.834,0.508,1.062,0.741,0.327,0.587,0.558,��쓌,4.0,��
2023/03/01,23:20,0.578,0.833,0.506,1.061,0.741,0.328,0.588,0.557,��,4.7,��
2023/03/01,23:30,0.576,0.831,0.509,1.060,0.740,0.329,0.589,0.557,��쓌,5.2,��
2023/03/01,23:40,0.578,0.834,0.507,1.061,0.741,0.327,0.587,0.559,��,5.3,��
2023/03/01,23:50,0.577,0.834,0.506,1.059,0.740,0.327,0.588,0.557,��,6.4,��
